Location: ?????
(31.8092°N, 35.2590°E)
Time: 19:54:36
(UTC+00:00)

Cosmos 1455 Rocket - Pass Details

Date: 17 October 2021
Orbit: 604 x 630 km, 82.5° (Epoch: 04 December)

Event Time Altitude Azimuth Distance (km) Brightness Sun altitude
Rises 16:43:15 0° 207° (SSW) 2,868 6.8 -21.7°
Reaches altitude 10° 16:45:39 10° 218° (SW) 1,972 6.1 -22.2°
Maximum altitude 16:49:33 31° 281° (W) 1,087 4.9 -23.1°
Drops below altitude 10° 16:53:30 10° 344° (NNW) 1,998 5.9 -23.9°
Sets 16:55:57 0° 354° (N) 2,912 6.6 -24.4°
